Time,TemperatureF,DewpointF,PressureIn,WindDirection,WindDirectionDegrees,WindSpeedMPH,WindSpeedGustMPH,Humidity,HourlyPrecipIn,Conditions,Clouds,dailyrainin,SoftwareType,DateUTC
2013-03-27 00:02:00,42.2,19.0,30.11,WNW,298,4.0,24.0,39,0.00,,,0.00,weatherlink.com 1.10,2013-03-27 06:02:00,
2013-03-27 00:17:00,42.8,20.0,30.11,West,277,0.0,16.0,40,0.00,,,0.00,weatherlink.com 1.10,2013-03-27 06:17:00,
2013-03-27 00:32:00,41.9,19.0,30.11,West,277,4.0,4.0,40,0.00,,,0.00,weatherlink.com 1.10,2013-03-27 06:32:00,
2013-03-27 00:47:00,39.7,19.0,30.11,West,260,3.0,5.0,43,0.00,,,0.00,weatherlink.com 1.10,2013-03-27 06:47:00,
2013-03-27 01:02:00,37.1,18.0,30.10,SSE,154,3.0,5.0,46,0.00,,,0.00,weatherlink.com 1.10,2013-03-27 07:02:00,
2013-03-27 01:17:00,36.9,18.0,30.11,SSE,151,3.0,7.0,46,0.00,,,0.00,weatherlink.com 1.10,2013-03-27 07:17:00,
2013-03-27 01:32:00,37.4,18.0,30.11,ESE,111,1.0,5.0,46,0.00,,,0.00,weatherlink.com 1.10,2013-03-27 07:32:00,
2013-03-27 01:47:00,36.7,19.0,30.11,South,180,2.0,7.0,49,0.00,,,0.00,weatherlink.com 1.10,2013-03-27 07:47:00,
2013-03-27 02:03:00,37.3,18.0,30.11,South,175,4.0,11.0,46,0.00,,,0.00,weatherlink.com 1.10,2013-03-27 08:03:00,
2013-03-27 02:18:00,38.8,18.0,30.11,SSE,163,4.0,10.0,43,0.00,,,0.00,weatherlink.com 1.10,2013-03-27 08:18:00,
2013-03-27 02:33:00,39.8,19.0,30.10,South,171,2.0,10.0,43,0.00,,,0.00,weatherlink.com 1.10,2013-03-27 08:33:00,
2013-03-27 02:48:00,40.0,19.0,30.10,SSE,147,2.0,6.0,43,0.00,,,0.00,weatherlink.com 1.10,2013-03-27 08:48:00,
2013-03-27 03:03:00,39.6,20.0,30.10,SE,143,4.0,8.0,45,0.00,,,0.00,weatherlink.com 1.10,2013-03-27 09:03:00,
2013-03-27 03:18:00,39.3,20.0,30.10,SSW,195,2.0,8.0,47,0.00,,,0.00,weatherlink.com 1.10,2013-03-27 09:18:00,
2013-03-27 03:33:00,38.8,20.0,30.10,SSW,192,2.0,5.0,47,0.00,,,0.00,weatherlink.com 1.10,2013-03-27 09:33:00,
2013-03-27 03:48:00,37.8,20.0,30.11,South,186,5.0,6.0,49,0.00,,,0.00,weatherlink.com 1.10,2013-03-27 09:48:00,
2013-03-27 04:03:00,36.6,19.0,30.10,SSW,198,4.0,8.0,50,0.00,,,0.00,weatherlink.com 1.10,2013-03-27 10:03:00,
2013-03-27 04:18:00,36.4,19.0,30.11,South,186,1.0,4.0,50,0.00,,,0.00,weatherlink.com 1.10,2013-03-27 10:18:00,
2013-03-27 04:33:00,35.3,20.0,30.11,South,182,3.0,6.0,53,0.00,,,0.00,weatherlink.com 1.10,2013-03-27 10:33:00,
2013-03-27 04:48:00,34.0,20.0,30.11,South,182,3.0,5.0,56,0.00,,,0.00,weatherlink.com 1.10,2013-03-27 10:48:00,
2013-03-27 05:03:00,33.0,20.0,30.11,SSE,157,6.0,6.0,59,0.00,,,0.00,weatherlink.com 1.10,2013-03-27 11:03:00,
2013-03-27 05:18:00,34.2,20.0,30.12,SE,145,3.0,7.0,57,0.00,,,0.00,weatherlink.com 1.10,2013-03-27 11:18:00,
2013-03-27 05:33:00,33.9,20.0,30.12,SSW,198,2.0,4.0,57,0.00,,,0.00,weatherlink.com 1.10,2013-03-27 11:33:00,
2013-03-27 05:48:00,33.0,20.0,30.12,West,263,0.0,5.0,58,0.00,,,0.00,weatherlink.com 1.10,2013-03-27 11:48:00,
2013-03-27 06:03:00,31.9,19.0,30.13,WSW,238,1.0,5.0,60,0.00,,,0.00,weatherlink.com 1.10,2013-03-27 12:03:00,
2013-03-27 06:18:00,31.0,18.0,30.13,SW,229,5.0,6.0,60,0.00,,,0.00,weatherlink.com 1.10,2013-03-27 12:18:00,
2013-03-27 06:33:00,30.6,17.0,30.13,SW,220,2.0,6.0,57,0.00,,,0.00,weatherlink.com 1.10,2013-03-27 12:33:00,
2013-03-27 06:48:00,30.5,18.0,30.14,SW,221,2.0,5.0,59,0.00,,,0.00,weatherlink.com 1.10,2013-03-27 12:48:00,
2013-03-27 07:03:00,30.3,18.0,30.14,SSW,206,2.0,7.0,60,0.00,,,0.00,weatherlink.com 1.10,2013-03-27 13:03:00,
2013-03-27 07:18:00,31.5,18.0,30.14,South,185,2.0,11.0,57,0.00,,,0.00,weatherlink.com 1.10,2013-03-27 13:18:00,
2013-03-27 07:33:00,32.7,19.0,30.14,SE,139,2.0,5.0,57,0.00,,,0.00,weatherlink.com 1.10,2013-03-27 13:33:00,
2013-03-27 07:48:00,33.4,19.0,30.15,SE,140,0.0,0.0,56,0.00,,,0.00,weatherlink.com 1.10,2013-03-27 13:48:00,
2013-03-27 08:03:00,34.6,21.0,30.16,SSE,149,4.0,5.0,58,0.00,,,0.00,weatherlink.com 1.10,2013-03-27 14:03:00,
2013-03-27 08:18:00,36.6,20.0,30.16,South,184,3.0,7.0,52,0.00,,,0.00,weatherlink.com 1.10,2013-03-27 14:18:00,
2013-03-27 08:33:00,38.4,21.0,30.16,SSW,192,4.0,6.0,49,0.00,,,0.00,weatherlink.com 1.10,2013-03-27 14:33:00,
2013-03-27 08:48:00,39.3,20.0,30.16,SSW,206,3.0,7.0,46,0.00,,,0.00,weatherlink.com 1.10,2013-03-27 14:48:00,
2013-03-27 09:03:00,40.6,19.0,30.16,SSW,201,0.0,7.0,42,0.00,,,0.00,weatherlink.com 1.10,2013-03-27 15:03:00,
2013-03-27 09:18:00,42.7,17.0,30.16,SW,224,4.0,9.0,36,0.00,,,0.00,weatherlink.com 1.10,2013-03-27 15:18:00,
2013-03-27 09:33:00,45.1,16.0,30.16,SSW,210,5.0,13.0,31,0.00,,,0.00,weatherlink.com 1.10,2013-03-27 15:33:00,
2013-03-27 09:48:00,46.1,16.0,30.16,SW,234,8.0,11.0,30,0.00,,,0.00,weatherlink.com 1.10,2013-03-27 15:48:00,
2013-03-27 10:04:00,49.4,17.0,30.17,SW,228,3.0,10.0,27,0.00,,,0.00,weatherlink.com 1.10,2013-03-27 16:04:00,
2013-03-27 10:19:00,51.4,17.0,30.17,SW,228,3.0,8.0,25,0.00,,,0.00,weatherlink.com 1.10,2013-03-27 16:19:00,
2013-03-27 10:34:00,52.4,15.0,30.17,South,179,11.0,12.0,23,0.00,,,0.00,weatherlink.com 1.10,2013-03-27 16:34:00,
2013-03-27 10:49:00,52.9,16.0,30.17,South,190,4.0,12.0,23,0.00,,,0.00,weatherlink.com 1.10,2013-03-27 16:49:00,
2013-03-27 11:04:00,53.4,12.0,30.17,West,260,4.0,12.0,19,0.00,,,0.00,weatherlink.com 1.10,2013-03-27 17:04:00,
2013-03-27 11:19:00,53.5,13.0,30.17,SW,231,7.0,13.0,20,0.00,,,0.00,weatherlink.com 1.10,2013-03-27 17:19:00,
2013-03-27 11:34:00,53.8,16.0,30.17,SSW,213,9.0,17.0,22,0.00,,,0.00,weatherlink.com 1.10,2013-03-27 17:34:00,
2013-03-27 11:49:00,53.6,13.0,30.16,SSE,150,6.0,13.0,20,0.00,,,0.00,weatherlink.com 1.10,2013-03-27 17:49:00,
2013-03-27 12:04:00,54.5,15.0,30.16,South,186,11.0,12.0,21,0.00,,,0.00,weatherlink.com 1.10,2013-03-27 18:04:00,
2013-03-27 12:19:00,54.5,15.0,30.16,SW,227,4.0,15.0,21,0.00,,,0.00,weatherlink.com 1.10,2013-03-27 18:19:00,
2013-03-27 12:34:00,54.2,15.0,30.16,WSW,238,7.0,17.0,21,0.00,,,0.00,weatherlink.com 1.10,2013-03-27 18:34:00,
2013-03-27 12:49:00,53.5,14.0,30.16,SW,232,12.0,15.0,21,0.00,,,0.00,weatherlink.com 1.10,2013-03-27 18:49:00,
2013-03-27 13:04:00,54.9,14.0,30.16,WSW,250,1.0,18.0,20,0.00,,,0.00,weatherlink.com 1.10,2013-03-27 19:04:00,
2013-03-27 13:19:00,54.1,15.0,30.16,WNW,287,12.0,13.0,21,0.00,,,0.00,weatherlink.com 1.10,2013-03-27 19:19:00,
2013-03-27 13:34:00,54.9,15.0,30.16,WSW,250,6.0,19.0,21,0.00,,,0.00,weatherlink.com 1.10,2013-03-27 19:34:00,
2013-03-27 13:49:00,55.9,16.0,30.15,SW,227,5.0,16.0,21,0.00,,,0.00,weatherlink.com 1.10,2013-03-27 19:49:00,
2013-03-27 14:04:00,56.0,16.0,30.15,WSW,243,4.0,15.0,21,0.00,,,0.00,weatherlink.com 1.10,2013-03-27 20:04:00,
2013-03-27 14:19:00,56.3,16.0,30.15,SSW,212,1.0,16.0,20,0.00,,,0.00,weatherlink.com 1.10,2013-03-27 20:19:00,
2013-03-27 14:34:00,57.4,15.0,30.14,West,271,12.0,15.0,19,0.00,,,0.00,weatherlink.com 1.10,2013-03-27 20:34:00,
2013-03-27 14:49:00,56.6,16.0,30.14,South,174,6.0,11.0,20,0.00,,,0.00,weatherlink.com 1.10,2013-03-27 20:49:00,
2013-03-27 15:04:00,56.6,15.0,30.14,WNW,288,7.0,18.0,19,0.00,,,0.00,weatherlink.com 1.10,2013-03-27 21:04:00,
2013-03-27 15:19:00,57.2,15.0,30.14,WSW,257,9.0,15.0,19,0.00,,,0.00,weatherlink.com 1.10,2013-03-27 21:19:00,
2013-03-27 15:34:00,57.8,13.0,30.14,SW,219,8.0,17.0,17,0.00,,,0.00,weatherlink.com 1.10,2013-03-27 21:34:00,
2013-03-27 15:49:00,56.9,12.0,30.14,WSW,257,8.0,17.0,17,0.00,,,0.00,weatherlink.com 1.10,2013-03-27 21:49:00,
2013-03-27 16:04:00,56.9,14.0,30.13,WNW,289,10.0,18.0,18,0.00,,,0.00,weatherlink.com 1.10,2013-03-27 22:04:00,
2013-03-27 16:19:00,57.4,13.0,30.13,SSW,213,14.0,18.0,17,0.00,,,0.00,weatherlink.com 1.10,2013-03-27 22:19:00,
2013-03-27 16:34:00,57.2,11.0,30.13,West,269,12.0,14.0,16,0.00,,,0.00,weatherlink.com 1.10,2013-03-27 22:34:00,
2013-03-27 16:49:00,56.5,12.0,30.14,West,263,7.0,19.0,17,0.00,,,0.00,weatherlink.com 1.10,2013-03-27 22:49:00,
2013-03-27 17:04:00,56.5,12.0,30.14,WSW,237,12.0,18.0,17,0.00,,,0.00,weatherlink.com 1.10,2013-03-27 23:04:00,
2013-03-27 17:19:00,56.4,12.0,30.14,SW,231,5.0,13.0,17,0.00,,,0.00,weatherlink.com 1.10,2013-03-27 23:19:00,
2013-03-27 17:34:00,55.6,14.0,30.14,WSW,254,6.0,15.0,19,0.00,,,0.00,weatherlink.com 1.10,2013-03-27 23:34:00,
2013-03-27 17:49:00,54.7,12.0,30.14,WSW,240,1.0,14.0,18,0.00,,,0.00,weatherlink.com 1.10,2013-03-27 23:49:00,
2013-03-27 18:04:00,53.7,12.0,30.14,WNW,286,4.0,11.0,19,0.00,,,0.00,weatherlink.com 1.10,2013-03-28 00:04:00,
2013-03-27 18:19:00,52.0,12.0,30.15,West,277,9.0,17.0,20,0.00,,,0.00,weatherlink.com 1.10,2013-03-28 00:19:00,
2013-03-27 18:34:00,51.1,13.0,30.15,SW,234,6.0,9.0,22,0.00,,,0.00,weatherlink.com 1.10,2013-03-28 00:34:00,
2013-03-27 18:49:00,50.1,12.0,30.15,WSW,238,2.0,12.0,22,0.00,,,0.00,weatherlink.com 1.10,2013-03-28 00:49:00,
2013-03-27 19:04:00,49.2,13.0,30.15,WSW,242,6.0,10.0,23,0.00,,,0.00,weatherlink.com 1.10,2013-03-28 01:04:00,
2013-03-27 19:19:00,48.4,13.0,30.16,WSW,253,3.0,9.0,24,0.00,,,0.00,weatherlink.com 1.10,2013-03-28 01:19:00,
2013-03-27 19:34:00,47.4,13.0,30.16,WSW,248,5.0,10.0,25,0.00,,,0.00,weatherlink.com 1.10,2013-03-28 01:34:00,
2013-03-27 19:49:00,46.4,13.0,30.16,SW,231,1.0,9.0,26,0.00,,,0.00,weatherlink.com 1.10,2013-03-28 01:49:00,
2013-03-27 20:04:00,45.9,13.0,30.17,WSW,241,7.0,9.0,26,0.00,,,0.00,weatherlink.com 1.10,2013-03-28 02:04:00,
2013-03-27 20:19:00,45.5,13.0,30.17,WSW,244,5.0,11.0,27,0.00,,,0.00,weatherlink.com 1.10,2013-03-28 02:19:00,
2013-03-27 20:34:00,45.3,12.0,30.17,SW,223,4.0,11.0,26,0.00,,,0.00,weatherlink.com 1.10,2013-03-28 02:34:00,
2013-03-27 20:49:00,44.5,14.0,30.18,SSW,206,9.0,9.0,29,0.00,,,0.00,weatherlink.com 1.10,2013-03-28 02:49:00,
2013-03-27 21:04:00,43.6,13.0,30.18,SSE,165,6.0,8.0,29,0.00,,,0.00,weatherlink.com 1.10,2013-03-28 03:04:00,
2013-03-27 21:19:00,43.1,13.0,30.18,SSE,154,4.0,8.0,30,0.00,,,0.00,weatherlink.com 1.10,2013-03-28 03:19:00,
2013-03-27 21:34:00,42.5,14.0,30.18,South,171,5.0,9.0,31,0.00,,,0.00,weatherlink.com 1.10,2013-03-28 03:34:00,
2013-03-27 21:49:00,41.7,13.0,30.18,South,188,6.0,9.0,31,0.00,,,0.00,weatherlink.com 1.10,2013-03-28 03:49:00,
2013-03-27 22:04:00,41.2,13.0,30.19,South,186,5.0,9.0,32,0.00,,,0.00,weatherlink.com 1.10,2013-03-28 04:04:00,
2013-03-27 22:19:00,40.6,13.0,30.19,SSW,192,6.0,8.0,33,0.00,,,0.00,weatherlink.com 1.10,2013-03-28 04:19:00,
2013-03-27 22:34:00,39.9,13.0,30.19,South,184,5.0,7.0,34,0.00,,,0.00,weatherlink.com 1.10,2013-03-28 04:34:00,
2013-03-27 22:49:00,39.4,13.0,30.19,South,180,5.0,7.0,34,0.00,,,0.00,weatherlink.com 1.10,2013-03-28 04:49:00,
2013-03-27 23:04:00,39.1,13.0,30.19,South,170,6.0,7.0,34,0.00,,,0.00,weatherlink.com 1.10,2013-03-28 05:04:00,
2013-03-27 23:19:00,39.2,14.0,30.19,South,182,7.0,8.0,35,0.00,,,0.00,weatherlink.com 1.10,2013-03-28 05:19:00,
2013-03-27 23:49:00,41.0,13.0,30.19,South,186,6.0,8.0,32,0.00,,,0.00,weatherlink.com 1.10,2013-03-28 05:49:00,